www.pogodaiklimat.ru

Погода и климат >> Архив погоды >> Норвегия >> Тынсет


ПОГОДА в Тынсете

  • Прогноз погоды в Тынсете
  • Монитор погоды в Тынсете

АРХИВ ПОГОДЫ в Тынсете

Время (UTC), дата Ветер
(напр.,м/с)
 
Видим.   Явления Облачность Т
(С)
Тd
(С)
f
(%)
Тe
(С)
Тes
(С)
Комфортность P
(гПа)
Po
(гПа)
Тmin
(С)
Tmax
(С)
R
(мм)
R24
(мм)
S
(см)
01 13.09 Ю 1
{2}
н/о н/о +1.9 +1.0 94 0 0 1012.0 953.7
02 13.09 ЮЗ 1
{2}
н/о н/о +0.3 -0.4 95 -2 -2 1012.4 953.7
03 13.09 В 1
{2}
н/о н/о -0.5 -1.0 96 -3 -3 1012.9 954.1
04 13.09 ЮВ 1
{2}
н/о н/о -1.1 -1.6 96 -3 -3 1013.5 954.5
05 13.09 штиль 0
{2}
н/о н/о -0.1 -0.5 97 -1 -1 1014.0 955.1
06 13.09 В 1
{2}
н/о н/о 0.0 -0.4 97 -2 -2 1014.7 955.8 -1.1 +10.2
07 13.09 штиль 0
{2}
н/о н/о +2.7 +2.1 96 +1 +1 1014.4 956.1
08 13.09 С 1
{2}
н/о н/о +6.8 +3.1 77 +6 +6 1013.5 956.0
09 13.09 З 3
{6}
н/о н/о +10.2 +1.6 55 +8 +8 1013.0 956.2 0.3
10 13.09 З 3 н/о н/о +11.2 +1.7 52 +10 +10 1013.3 956.7
11 13.09 З 4 н/о н/о +11.5 -0.9 42 +10 +10 1013.8 957.3
12 13.09
{9}
н/о н/о
13 13.09 СЗ 5 н/о н/о +11.8 +1.7 50 +10 +10 1014.7 958.1 0.5
14 13.09 н/о н/о
15 13.09 З 6 н/о н/о +11.8 -0.7 42 +9 +9 1015.2 958.6
16 13.09 ЮЗ 3 н/о н/о +11.7 +0.2 45 +10 +10 1015.3 958.7
17 13.09 З 3 н/о н/о +9.9 -0.3 49 +8 +8 1016.0 959.0
18 13.09 ЮЗ 2
{12}
н/о н/о +8.4 -0.1 55 +7 +7 1016.8 959.5 +13.0 0.8
19 13.09 З 1 н/о н/о +6.6 -0.4 61 +6 +6 1017.5 959.8
20 13.09 З 2 н/о н/о +4.9 -0.1 70 +3 +3 1018.1 960.0
21 13.09 З 3 н/о н/о +4.1 -0.1 74 +1 +1 1018.7 960.4
22 13.09 ЮЗ 1 н/о н/о +1.0 -0.6 89 -1 -1 1020.0 961.1
23 13.09 СВ 1 н/о н/о 0.0 -0.9 94 -2 -2 1020.4 961.2
00 14.09 В 1
{5}
н/о н/о -1.3 -1.9 96 -4 -4 1021.0 961.6
01 14.09 В 1
{2}
н/о н/о -1.8 -2.4 96 -4 -4 1021.6 961.9
02 14.09 З 1
{2}
н/о н/о -2.6 -3.2 96 -5 -5 1021.7 961.8
03 14.09 В 1 н/о н/о -2.9 -3.5 96 -5 -5 1021.8 961.9
04 14.09 В 1
{2}
н/о н/о -3.4 -4.0 96 -6 -6 1021.8 961.8
05 14.09 СЗ 1
{2}
н/о н/о -3.4 -4.0 96 -6 -6 1021.6 961.6
06 14.09 штиль 0
{2}
н/о н/о -2.2 -2.8 96 -4 -4 1021.7 961.9 -3.7 +8.4
07 14.09 штиль 0 н/о н/о +0.2 -0.9 92 -1 -1 1021.0 961.8
09 14.09 В 1
{2}
н/о н/о +4.6 +1.6 81 +3 +3 1019.6 961.3
10 14.09 СВ 1
{2}
н/о н/о +7.0 +3.1 76 +6 +6 1018.3 960.6
11 14.09 СВ 1
{3}
н/о н/о +10.3 +1.9 56 +10 +10 1016.6 959.5
12 14.09 ЮЗ 4 н/о н/о +12.0 -0.2 43 +10 +10 1015.7 959.1
13 14.09 ЮЗ 3
{8}
н/о н/о +11.8 -0.7 42 +11 +11 1014.6 958.0
14 14.09 З 3
{7}
н/о н/о +10.1 +0.7 52 +8 +8 1014.2 957.4
15 14.09 С 1
{6}
н/о н/о +8.5 +4.7 77 +8 +8 1012.8 955.7
16 14.09 Ю 3
{6}
н/о н/о +9.0 +2.4 63 +7 +7 1011.1 954.2
17 14.09 Ю 3
{7}
н/о н/о +7.2 +4.0 80 +4 +4 1009.5 952.3 0.1
18 14.09 Ю 4
{8}
н/о н/о +6.7 +4.5 86 +3 +3 1006.9 949.8
19 14.09 Ю 6
{11}
н/о н/о +7.2 +4.5 83 +3 +3 1004.4 947.4
20 14.09 Ю 5
{11}
н/о н/о +7.3 +5.0 85 +3 +3 1002.7 945.9
21 14.09 ЮВ 4
{9}
н/о н/о +7.6 +4.9 83 +4 +4 1001.0 944.3
22 14.09 ЮВ 3
{7}
н/о н/о +8.0 +4.2 77 +5 +5 999.5 943.1
23 14.09 Ю 3
{7}
н/о н/о +8.1 +4.1 76 +6 +6 997.6 941.3
00 15.09 Ю 2
{11}
н/о н/о +6.9 +3.2 77 +5 +5 996.9 940.3
01 15.09 Ю 1
{3}
н/о н/о +4.7 +2.7 87 +3 +3 996.3 939.4
02 15.09 СВ 1
{3}
н/о н/о +2.1 +0.6 90 0 0 995.5 938.2
03 15.09 С 1
{3}
н/о н/о +1.2 +0.4 94 -1 -1 994.8 937.3
04 15.09 С 1
{2}
н/о н/о +0.1 -0.7 94 -2 -2 994.6 936.9
05 15.09 В 2
{8}
н/о н/о +2.7 +0.9 88 -1 -1 993.4 936.3
06 15.09 Ю 1
{8}
н/о н/о +3.2 +1.1 86 +2 +2 992.7 935.7 -0.2 +8.2
07 15.09 Ю 2
{5}
н/о н/о +7.0 +1.3 67 +5 +5 991.1 935.0
08 15.09 Ю 2
{4}
н/о н/о +8.9 +1.1 58 +8 +8 990.6 934.8 0.1
09 15.09 ЮВ 4
{7}
н/о н/о +10.1 +0.7 52 +8 +8 990.0 934.6
10 15.09 ЮЗ 4
{8}
н/о н/о +10.2 -0.9 46 +8 +8 989.2 933.7
11 15.09 ЮЗ 5
{12}
н/о н/о +12.7 +0.2 42 +11 +11 988.1 933.2
12 15.09 ЮЗ 5
{12}
н/о н/о +11.0 +0.2 47 +9 +9 988.6 933.5
13 15.09 ЮЗ 6
{11}
н/о н/о +10.7 +1.5 53 +8 +8 989.3 934.0
14 15.09 ЮЗ 2
{11}
н/о н/о +10.4 +2.0 56 +9 +9 989.4 934.0
15 15.09 З 3
{10}
н/о н/о +11.3 +2.6 55 +10 +10 989.1 933.9
16 15.09 ЮЗ 4
{11}
н/о н/о +11.2 +1.2 50 +9 +9 989.4 934.2
17 15.09 ЮЗ 3
{7}
н/о н/о +9.9 +2.1 58 +8 +8 990.3 934.8
18 15.09 З 3
{11}
н/о н/о +9.4 +2.1 60 +7 +7 991.3 935.6 +3.2 +12.7
19 15.09 З 4
{7}
н/о н/о +8.4 +1.8 63 +6 +6 993.0 937.0
20 15.09 СЗ 1
{4}
н/о н/о +7.1 +1.6 68 +6 +6 994.5 938.2
21 15.09 ЮВ 1
{5}
н/о н/о +6.4 +2.3 75 +6 +6 995.3 938.8
22 15.09 ЮЗ 1
{2}
н/о н/о +4.1 +2.1 87 +3 +3 996.6 939.5
23 15.09 З 3
{5}
н/о н/о +6.7 +2.4 74 +4 +4 997.1 940.5
00 16.09 Ю 1
{7}
н/о н/о +6.2 +2.3 76 +5 +5 998.2 941.5
01 16.09 З 7
{12}
н/о н/о +7.0 -1.1 56 +3 +3 998.5 942.0
02 16.09 С 1
{15}
н/о н/о +6.7 -1.9 54 +6 +6 999.6 942.9
03 16.09 З 2
{7}
н/о н/о +6.1 -3.8 49 +4 +4 1000.3 943.5
04 16.09 СЗ 4
{10}
н/о н/о +5.9 -3.7 50 +3 +3 1000.8 943.9
05 16.09 СЗ 1
{4}
н/о н/о +4.3 -1.7 65 +3 +3 1001.4 944.1
06 16.09 В 1
{15}
н/о н/о +4.2 -0.8 70 +3 +3 1002.0 944.7 +3.7 +9.4
07 16.09 ЮЗ 2
{5}
н/о н/о +6.2 -1.2 59 +4 +4 1002.2 945.4
08 16.09 З 2
{4}
н/о н/о +7.5 -0.2 58 +6 +6 1002.6 945.9 0.1
09 16.09 СЗ 5
{10}
н/о н/о +9.1 +0.1 53 +6 +6 1002.7 946.3
10 16.09 СЗ 5
{13}
н/о н/о +8.2 -0.3 55 +5 +5 1003.7 947.2
11 16.09 СЗ 4
{10}
н/о н/о +9.4 -1.6 46 +7 +7 1003.8 947.4
12 16.09 З 8
{13}
н/о н/о +9.6 -4.3 37 +6 +6 1003.8 947.4
13 16.09 З 6
{10}
н/о н/о +10.3 -3.0 39 +8 +8 1003.5 947.3
14 16.09 З 5
{10}
н/о н/о +10.2 -2.8 40 +8 +8 1003.4 947.2
15 16.09 З 3
{10}
н/о н/о +10.4 -1.9 42 +9 +9 1003.0 946.9
16 16.09 З 2
{5}
н/о н/о +9.2 -0.1 52 +8 +8 1002.8 946.4
17 16.09 З 1
{3}
н/о н/о +8.2 -0.8 53 +8 +8 1002.6 946.0
18 16.09 В 1
{10}
н/о н/о +4.7 +0.7 75 +4 +4 1003.0 945.7 +3.9 +10.8 0.1
19 16.09 ЮЗ 3
{5}
н/о н/о +6.8 -0.6 59 +4 +4 1002.3 945.5
20 16.09 ЮЗ 3
{7}
н/о н/о +6.1 -2.2 55 +3 +3 1002.4 945.4
21 16.09 СЗ 2
{6}
н/о н/о +4.5 -0.9 68 +2 +2 1003.0 945.7
22 16.09 Ю 1
{3}
н/о н/о -0.2 -1.6 90 -2 -2 1003.9 945.6
23 16.09 ЮВ 1
{2}
н/о н/о -1.7 -2.7 93 -4 -4 1004.5 945.8
00 17.09 Ю 1
{7}
н/о н/о -2.9 -3.8 93 -5 -5 1004.5 945.6
01 17.09 штиль 0
{2}
н/о н/о -3.5 -4.4 93 -5 -5 1004.5 945.5
02 17.09 СЗ 1
{2}
н/о н/о -3.4 -4.0 96 -6 -6 1004.6 945.6
03 17.09 ЮВ 1
{2}
н/о н/о -4.3 -5.0 95 -7 -7 1004.7 945.5
04 17.09 З 1
{2}
н/о н/о -5.3 -6.1 94 -8 -8 1004.9 945.5
05 17.09 ЮВ 1
{1}
н/о н/о -4.6 -5.4 94 -7 -7 1005.3 946.1
06 17.09 штиль 0
{2}
н/о н/о -3.2 -3.8 96 -4 -4 1005.5 946.5 -5.3 +7.0
07 17.09 В 1
{1}
н/о н/о -1.3 -1.9 96 -4 -4 1005.6 947.0
08 17.09 С 1
{2}
н/о н/о +1.4 -0.2 89 -1 -1 1005.6 947.5
09 17.09 СВ 2
{3}
н/о н/о +3.1 +0.5 83 0 0 1005.4 947.7
10 17.09 Ю 2
{4}
н/о н/о +6.4 -0.8 60 +5 +5 1005.0 948.0
11 17.09 С 4
{10}
н/о н/о +7.6 -1.6 52 +5 +5 1005.2 948.4
12 17.09 СЗ 5
{11}
н/о н/о +7.9 -1.6 51 +5 +5 1005.7 948.9
13 17.09 СЗ 3
{9}
н/о н/о +7.2 -1.2 55 +5 +5 1006.4 949.4
14 17.09 СЗ 2
{5}
н/о н/о +7.8 -0.6 55 +6 +6 1006.5 949.6
15 17.09 СЗ 3
{8}
н/о н/о +7.5 +1.6 66 +5 +5 1007.0 950.2
16 17.09 С 5
{9}
н/о н/о +7.5 +2.2 69 +4 +4 1007.7 950.7
17 17.09 СЗ 4
{8}
н/о н/о +6.9 +2.4 73 +3 +3 1008.5 951.4
18 17.09 С 2
{10}
н/о н/о +6.1 +2.0 75 +4 +4 1009.7 952.3 -3.2 +8.9
19 17.09 З 1
{4}
н/о н/о +5.5 +2.3 80 +4 +4 1010.3 952.9
20 17.09 Ю 1
{4}
н/о н/о +5.6 +1.9 77 +5 +5 1011.2 953.6
21 17.09 СЗ 3
{6}
н/о н/о +5.2 +1.9 79 +2 +2 1012.0 954.3 0.1
22 17.09 СЗ 1
{5}
н/о н/о +4.4 +1.8 83 +3 +3 1012.7 954.8 0.2
23 17.09 В 2
{4}
н/о н/о +3.8 +2.0 88 +1 +1 1013.1 955.1
00 18.09 Ю 1
{6}
н/о н/о +3.4 +2.2 92 +2 +2 1013.6 955.5
01 18.09 С 1
{4}
н/о н/о +3.5 +1.7 88 +2 +2 1013.7 955.7
02 18.09 ЮВ 2
{4}
н/о н/о +3.1 +1.5 89 0 0 1014.2 956.0
03 18.09 СЗ 1
{3}
н/о н/о +2.8 +0.9 87 +1 +1 1014.7 956.4
04 18.09 ЮВ 2
{3}
н/о н/о +3.0 +1.4 89 -0 -0 1015.2 956.9
05 18.09 Ю 2
{4}
н/о н/о +2.8 +1.0 88 -0 -0 1015.7 957.3
06 18.09 Ю 2
{4}
н/о н/о +3.1 +0.8 85 0 0 1016.5 958.1 +2.4 +6.1 0.3
07 18.09 Ю 1
{4}
н/о н/о +4.1 +2.0 86 +3 +3 1016.7 958.5
08 18.09 З 1
{5}
н/о н/о +6.3 +1.5 71 +5 +5 1016.7 959.0
09 18.09 С 1
{7}
н/о н/о +7.0 +1.9 70 +6 +6 1016.9 959.3
10 18.09 З 6
{10}
н/о н/о +7.4 +0.4 61 +3 +3 1016.6 959.1
11 18.09 СЗ 5
{12}
н/о н/о +9.0 +1.2 58 +6 +6 1016.6 959.4
12 18.09 СЗ 7
{12}
н/о н/о +8.6 -0.1 54 +5 +5 1016.9 959.6
13 18.09 СЗ 4
{11}
н/о н/о +7.4 +0.4 61 +4 +4 1017.8 960.3
14 18.09 СЗ 7
{13}
н/о н/о +7.9 -0.1 57 +4 +4 1017.9 960.4
15 18.09 СЗ 6
{12}
н/о н/о +6.4 +1.5 71 +2 +2 1018.9 961.1
16 18.09 СЗ 2
{10}
н/о н/о +5.9 +1.1 71 +4 +4 1019.6 961.6
17 18.09 СЗ 4
{6}
н/о н/о +5.5 +1.1 73 +2 +2 1020.1 962.1
18 18.09 СВ 1
{13}
н/о н/о +4.2 +1.1 80 +3 +3 1021.0 962.7 +3.1 +9.3
19 18.09 С 1
{3}
н/о н/о +3.8 +1.0 82 +2 +2 1021.6 963.2
20 18.09 З 1
{3}
н/о н/о +3.4 +0.5 81 +2 +2 1022.5 964.0
21 18.09 СЗ 4
{8}
н/о н/о +3.0 -0.1 80 -2 -2 1023.1 964.3
22 18.09 СЗ 3
{6}
н/о н/о +3.5 -0.1 77 -0 -0 1023.4 964.7
23 18.09 Ю 2
{4}
н/о н/о 0.0 -1.1 92 -4 -4 1024.3 964.8
00 19.09 В 1
{8}
н/о н/о -0.6 -1.3 95 -3 -3 1024.4 964.9
01 19.09 З 1
{3}
н/о н/о -0.9 -1.6 95 -3 -3 1024.8 965.1
02 19.09 СВ 1
{2}
н/о н/о -0.5 -1.1 96 -3 -3 1024.6 965.1
03 19.09 СЗ 1
{2}
н/о н/о +0.3 -0.5 94 -2 -2 1024.7 965.3
04 19.09 З 2
{4}
н/о н/о +1.2 +0.1 92 -2 -2 1024.6 965.4
05 19.09 З 2
{3}
н/о н/о +1.6 +0.5 92 -2 -2 1025.0 965.9 0.2
06 19.09 З 1
{4}
н/о н/о +1.8 +0.9 94 -0 -0 1025.0 965.9 -1.6 +4.2 0.5
07 19.09 СВ 1
{2}
н/о н/о +2.7 +1.8 94 +1 +1 1025.5 966.5 0.2
08 19.09 СВ 1
{2}
н/о н/о +4.0 +1.9 86 +3 +3 1025.2 966.5 0.2
09 19.09 С 2
{4}
н/о н/о +5.6 +2.1 78 +3 +3 1025.1 966.7
10 19.09 СЗ 3
{6}
н/о н/о +6.5 +1.4 70 +4 +4 1024.8 966.6
11 19.09 С 2
{7}
н/о н/о +6.9 +0.4 63 +5 +5 1024.6 966.5
12 19.09 СЗ 4
{8}
н/о н/о +7.5 -0.7 56 +5 +5 1024.5 966.5
13 19.09 СЗ 4
{7}
н/о н/о +7.6 -2.1 50 +5 +5 1024.1 966.2
14 19.09 СЗ 4
{7}
н/о н/о +7.6 -2.4 49 +5 +5 1023.9 966.1
15 19.09 СЗ 3
{6}
н/о н/о +7.5 -2.5 49 +5 +5 1023.4 965.5
16 19.09 штиль 0
{4}
н/о н/о +7.0 -0.9 57 +7 +7 1023.2 965.2
17 19.09 Ю 1
{1}
н/о н/о +5.3 +0.9 73 +4 +4 1023.2 964.9
18 19.09 штиль 0
{7}
н/о н/о +2.9 +0.6 85 +2 +2 1023.3 964.5 +1.7 +7.9 0.4
19 19.09 Ю 1
{2}
н/о н/о +2.2 +0.1 86 +1 +1 1023.2 964.3
20 19.09 штиль 0
{1}
н/о н/о +2.3 +0.8 90 +1 +1 1023.0 964.1
21 19.09 штиль 0
{1}
н/о н/о +2.7 +1.1 89 +2 +2 1022.7 963.9
22 19.09 штиль 0
{1}
н/о н/о +2.6 +1.4 92 +1 +1 1022.5 963.7 0.2
23 19.09 штиль 0
{1}
н/о н/о +2.6 +1.7 94 +1 +1 1022.1 963.3 0.3
00 20.09 Ю 1
{2}
н/о н/о +2.7 +1.4 91 +1 +1 1021.2 962.5 0.2

 

Местоположение метеостанции Тынсет (Норвегия): широта 62.27 долгота 10.73 высота над уровнем моря 482 м.

В архиве по умолчанию представлена погода в Тынсете за последнюю неделю. Архивные данные за месяц целиком и за предыдущие месяцы, начиная с января 2011 года, Вы можете получить, выбрав интересующий диапазон дат из раскрывающегося списка и нажав кнопку "Ввод!".


*Определитесь, кто Вы:
робот инопланетянин человек

Внимание! Время в таблицах - всемирное. Для получения местного времени необходимо прибавить поправку, которая равна 1 ч.

Смотрите также архив погоды в соседних городах и на ближайших метеорологических станциях:

Погода в Фоллдале (Норвегия) (41 км)
Погода в Рёрус аэропорту (Норвегия) (47 км)
Погода в Хьеркинне (Норвегия) (62 км)
Погода в Оппдале (Норвегия) (66 км)
Погода в Солендете (Норвегия) (72 км)
Погода в Венабу (Норвегия) (76 км)
Погода в Фокстугу (Норвегия) (77 км)
Погода в Котсой (Норвегия) (79 км)
Погода в Древсё (Норвегия) (81 км)
Погода в Сокнедале (Норвегия) (81 км)

Пояснения к столбцам:

Ветер - указаны скорость ветра в м/с - средняя за 10 мин, порывы в срок и между сроками (в фигурных скобках) и направление, откуда дует ветер: С - северный, СВ - северо-восточный, В - восточный, ЮВ - юго-восточный, Ю - южный, ЮЗ - юго-западный, З - западный, СЗ - северо-западный.
Видимость - горизонтальная дальность видимости в метрах или километрах. При видимости от 1 до 10 км при отсутствии осадков обычно наблюдается дымка, при ухудшении видимости до 1 км и менее - туман. В сухую погоду видимость может ухудшаться дымом, пылью или мглою.
Явления - указаны атмосферные явления, наблюдавшиеся в срок или в последний час перед сроком; фигурными скобками обозначены явления, наблюдавшиеся между сроками (за 1-3 часа до срока); квадратными скобками обозначены град или гололедные отложения с указанием их диаметра в мм.
Облачность - указаны через наклонную черту общая и нижняя облачность в баллах и высота нижней границы облаков в метрах; квадратными скобками обозначены формы облаков: Ci - перистые, Cs - перисто-слоистые, Cc - перисто-кучевые, Ac - высококучевые, As - высокослоистые, Sc - слоисто-кучевые, Ns - слоисто-дождевые, Cu - кучевые, Cb - кучево-дождевые. Подробнее классификацию облаков см. в Атласе облаков (PDF).
T - Температура воздуха - температура, измеренная на высоте 2 м над землей.
Td - Температура точки росы - температура, при понижении до которой содержащийся в воздухе водяной пар достигнет насыщения.
f - Относительная влажность воздуха - влажноcть воздуха, измеренная на высоте 2 м над землей.
Te - Эффективная температура - температура, которую ощущает одетый по сезону человек в тени. Характеристика душности погоды. При расчете учитывается влияние влажности воздуха и скорости ветра на теплоощущения человека.
Tes - Эффективная температура на солнце - температура, которую ощущает человек, с поправкой на солнечный нагрев. Характеристика знойности погоды. Зависит от высоты солнца над горизонтом, облачности и скорости ветра. Ночью, в пасмурную погоду, а также при ветре 12 м/с и более поправка равна нулю.
P - Атмосферное давление - приведенное к уровню моря атмосферное давление.
Po - Атмосферное давление - измеренное на уровне метеостанции атмосферное давление.
Tmin - Минимальная температура - минимум температуры воздуха на высоте 2 м над землей.
Tmax - Максимальная температура - максимум температуры воздуха на высоте 2 м над землей.
R - Количество осадков - Количество выпавших осадков за период времени, мм. При наведении курсора мыши на число - период времени, за который выпало указанное количество осадков.
R24 - Количество осадков - Количество выпавших осадков за 24 часа, мм.
S - Снежный покров - Высота снежного покрова, см. При наведении курсора мыши на число - состояние снежного покрова и степень покрытия местности в баллах.